DateTimeUTC,F1_A11,F1_S11,BsB_S11,BsG_S11,BsR_S11,BbsB_S11,BbsG_S11,BbsR_S11,BaB_A11,BaG_A11,BaR_A11,Tu_S11,T_S11,Uu_S11,U_S11,P_S11,T1_A11
2021-06-29T10:00:00Z,00000200,20000000,,,,,,,-000.09,0000.15,0000.28,19.1,25.5,09.6,06.5,0662.0,31.2
2021-06-29T10:01:00Z,00000200,20000000,,,,,,,0000.44,0000.04,0000.63,19.1,25.6,09.4,06.3,0662.0,31.2
2021-06-29T10:02:00Z,00000200,20000000,,,,,,,-000.30,-000.00,-000.59,19.1,25.6,09.4,06.3,0662.0,31.2
2021-06-29T10:03:00Z,00000200,60000000,,,,,,,0000.05,0000.34,0000.10,19.1,25.6,09.4,06.3,0662.0,31.2
2021-06-29T10:04:00Z,00000200,40000000,0001.05,0000.39,0000.22,0000.41,-000.26,-000.15,0000.05,-000.14,0000.20,19.3,25.5,09.5,06.5,0662.8,31.2
2021-06-29T10:05:00Z,00000200,00000000,0000.18,0000.40,-000.10,-000.06,-000.04,-000.26,0000.13,0000.15,-000.33,19.3,25.5,09.5,06.5,0662.8,31.2
2021-06-29T10:06:00Z,00000200,00000000,0001.39,0000.18,0000.23,0000.45,-000.00,0000.23,-000.24,-000.20,-000.04,19.3,25.5,09.6,06.6,0662.8,31.2
2021-06-29T10:07:00Z,00000200,00000000,0000.13,0000.12,0000.28,0000.03,0000.21,0000.08,0000.11,-000.12,0000.04,19.4,25.5,09.6,06.6,0662.8,31.2
2021-06-29T10:08:00Z,00000200,00000000,0000.73,0000.25,0000.33,0000.22,-000.02,-000.03,0000.12,0000.32,0000.22,19.4,25.5,09.6,06.6,0662.7,31.2
2021-06-29T10:09:00Z,00000200,00000000,-000.00,0000.28,0000.30,-000.39,0000.26,0000.01,-000.06,-000.30,-000.29,19.4,25.5,09.7,06.7,0662.7,31.2
2021-06-29T10:10:00Z,00000200,00000000,0000.76,0000.46,0000.04,-000.20,-000.21,-000.13,0000.33,0000.35,0000.34,19.4,25.5,09.6,06.6,0662.7,31.2
2021-06-29T10:11:00Z,00000200,00000000,0000.56,0000.25,0000.14,-000.16,0000.09,0000.13,0000.09,-000.06,0000.22,19.4,25.5,09.6,06.6,0662.7,31.2
2021-06-29T10:12:00Z,00000200,00000000,0000.59,-000.01,-000.01,-000.07,-000.23,-000.39,-000.43,0000.04,-000.26,19.3,25.5,09.6,06.6,0662.7,31.2
2021-06-29T10:13:00Z,00000200,00000000,0000.38,0000.11,-000.17,0000.09,0000.16,-000.23,0000.17,0000.08,-000.10,19.4,25.5,09.6,06.6,0662.7,31.2
2021-06-29T10:14:00Z,00000200,00000000,0000.25,0000.41,0000.06,0000.19,-000.00,0000.07,0000.16,0000.27,0000.43,19.4,25.5,09.6,06.6,0662.7,31.2
2021-06-29T10:15:00Z,00000200,00000000,0000.04,0000.39,0000.21,-000.46,-000.05,0000.22,-000.02,-000.28,-000.44,19.3,25.5,09.7,06.7,0662.7,31.2
2021-06-29T10:16:00Z,00000200,00000000,0000.24,0000.06,0000.11,0000.60,0000.03,-000.08,-000.17,0000.04,0000.10,19.4,25.5,09.6,06.6,0662.7,31.2
2021-06-29T10:17:00Z,00000200,00000000,0000.09,0000.21,-000.09,0000.04,0000.16,-000.24,0000.51,0000.22,0000.01,19.4,25.5,09.6,06.6,0662.7,31.2
2021-06-29T10:18:00Z,00000200,00000000,0000.32,0000.26,-000.25,0000.52,-000.16,-000.10,-000.56,-000.46,0000.04,19.4,25.5,09.6,06.6,0662.6,31.2
2021-06-29T10:19:00Z,00000200,00000000,0000.14,0000.15,-000.02,0000.03,-000.06,-000.31,0000.36,0000.08,0000.23,19.4,25.5,09.6,06.6,0662.7,31.2
2021-06-29T10:20:00Z,00000200,00000000,-000.05,0000.20,0000.11,-000.31,-000.09,-000.14,-000.21,-000.01,0000.06,19.4,25.5,09.6,06.6,0662.6,31.2
2021-06-29T10:21:00Z,00000200,00000000,0000.23,0000.12,-000.02,0000.13,0000.28,-000.06,0000.32,0000.35,-000.17,19.4,25.5,09.6,06.6,0662.6,31.2
2021-06-29T10:22:00Z,00000200,00000000,0000.65,0000.07,0000.04,-000.18,-000.11,-000.09,0000.09,-000.29,-000.11,19.4,25.5,09.5,06.5,0662.6,31.2
2021-06-29T10:23:00Z,00000200,00000000,0000.01,0000.17,0000.13,0000.00,0000.24,0000.03,0000.08,0000.51,0000.11,19.3,25.5,09.5,06.6,0662.6,31.2
2021-06-29T10:24:00Z,00000200,00000000,0000.14,0000.63,0000.18,0000.09,-000.18,0000.13,-000.33,-000.32,-000.14,19.4,25.5,09.6,06.6,0662.6,31.2
2021-06-29T10:25:00Z,00000200,00000000,0000.58,0000.19,0000.15,0000.26,-000.08,-000.14,0000.24,0000.29,0000.37,19.3,25.5,09.6,06.6,0662.6,31.2
2021-06-29T10:26:00Z,00000200,00000000,0000.10,0000.09,0000.07,0000.19,0000.17,-000.22,-000.08,-000.10,-000.04,19.4,25.5,09.6,06.6,0662.6,31.2
2021-06-29T10:27:00Z,00000200,00000000,0000.75,0000.02,0000.04,0000.40,-000.07,-000.03,-000.02,-000.02,0000.14,19.4,25.5,09.4,06.5,0662.6,31.2
2021-06-29T10:28:00Z,00000200,00000000,0001.15,0000.27,0000.08,-000.27,0000.06,0000.02,0000.03,0000.36,-000.26,19.3,25.5,09.5,06.5,0662.6,31.2
2021-06-29T10:29:00Z,00000200,00000000,0000.50,0000.25,0000.24,0000.07,0000.13,-000.17,0000.04,-000.40,-000.14,19.3,25.5,09.6,06.6,0662.6,31.2
2021-06-29T10:30:00Z,00000200,00000000,0000.18,0000.34,-000.19,0000.42,-000.05,0000.01,-000.19,-000.00,0000.01,19.3,25.5,09.5,06.6,0662.6,31.2
2021-06-29T10:31:00Z,00000200,00000000,0000.63,0000.19,0000.18,0000.19,0000.19,0000.00,-000.05,0000.21,0000.16,19.4,25.5,09.5,06.6,0662.6,31.2
2021-06-29T10:32:00Z,00000200,00000000,0000.07,0000.00,0000.10,0000.58,0000.14,0000.13,-000.03,-000.52,-000.20,19.4,25.5,09.5,06.6,0662.6,31.2
2021-06-29T10:33:00Z,00000200,00000000,0000.78,0000.41,-000.02,0000.01,0000.05,-000.10,0000.15,0000.36,0000.31,19.4,25.5,09.5,06.5,0662.6,31.2
2021-06-29T10:34:00Z,00000200,00000000,0000.69,0000.15,0000.25,-000.13,0000.12,0000.07,0000.43,-000.04,0000.07,19.4,25.5,09.3,06.4,0662.6,31.2
2021-06-29T10:35:00Z,00000200,00000000,-000.59,0000.36,0000.02,0000.12,0000.08,-000.26,0000.01,0000.32,0000.09,19.4,25.5,09.5,06.5,0662.6,31.2
2021-06-29T10:36:00Z,00000200,00000000,0001.14,0000.22,-000.03,0000.17,-000.04,0000.07,-000.51,0000.16,0000.08,19.3,25.5,09.4,06.5,0662.5,31.2
2021-06-29T10:37:00Z,00000200,00000000,-000.05,0000.14,-000.05,0000.35,0000.08,0000.10,0000.46,-000.28,-000.26,19.4,25.5,09.4,06.5,0662.5,31.2
2021-06-29T10:38:00Z,00000200,00000000,-000.12,0000.04,0000.16,0000.04,0000.04,-000.37,-000.24,0000.14,0000.46,19.4,25.5,09.4,06.5,0662.5,31.2
2021-06-29T10:39:00Z,00000200,00000000,0000.96,0000.23,-000.03,0000.03,-000.02,-000.26,0000.32,0000.13,-000.31,19.4,25.5,09.4,06.5,0662.4,31.2
2021-06-29T10:40:00Z,00000200,00000000,0000.33,0000.25,-000.14,0000.33,0000.07,-000.07,-000.20,-000.26,-000.12,19.4,25.5,09.2,06.4,0662.4,31.2
2021-06-29T10:41:00Z,00000200,00000000,0000.05,0000.05,0000.14,0000.23,-000.07,0000.26,0000.04,-000.16,0000.08,19.4,25.5,09.3,06.4,0662.4,31.2
2021-06-29T10:42:00Z,00000200,00000000,-000.06,-000.31,0000.14,0000.48,0000.26,0000.19,0000.40,0000.44,0000.15,19.4,25.5,09.4,06.5,0662.4,31.2
2021-06-29T10:43:00Z,00000200,00000000,0001.08,0000.17,-000.06,0000.29,0000.03,-000.09,-000.19,-000.09,-000.13,19.4,25.5,09.3,06.4,0662.3,31.2
2021-06-29T10:44:00Z,00000200,00000000,0000.09,0000.02,0000.38,-000.37,0000.03,-000.01,0000.15,-000.09,0000.11,19.4,25.5,09.3,06.4,0662.3,31.2
2021-06-29T10:45:00Z,00000200,00000000,0000.33,-000.07,0000.01,-000.15,0000.16,0000.11,0000.05,0000.05,-000.11,19.4,25.5,09.3,06.4,0662.4,31.2
2021-06-29T10:46:00Z,00000200,00000000,0000.15,0000.28,0000.11,0000.58,0000.17,-000.18,-000.18,0000.03,0000.32,19.4,25.5,09.3,06.4,0662.4,31.2
2021-06-29T10:47:00Z,00000200,00000000,0000.38,0000.22,0000.14,0000.27,0000.27,-000.04,0000.13,0000.03,-000.04,19.4,25.5,09.4,06.5,0662.3,31.2
2021-06-29T10:48:00Z,00000200,00000000,0000.40,0000.25,0000.25,0000.31,-000.20,-000.41,-000.01,-000.02,-000.12,19.4,25.5,09.4,06.5,0662.3,31.2
2021-06-29T10:49:00Z,00000200,00000000,0000.25,0000.27,0000.38,-000.08,-000.05,-000.14,-000.10,-000.02,-000.00,19.4,25.5,09.2,06.4,0662.2,31.2
2021-06-29T10:50:00Z,00000200,00000000,0000.64,0000.20,-000.05,0000.54,0000.03,0000.16,0000.25,0000.07,0000.22,19.4,25.5,09.2,06.4,0662.2,31.2
2021-06-29T10:51:00Z,00000200,00000000,0000.18,0000.22,-000.13,0000.14,0000.24,-000.09,-000.45,-000.37,-000.32,19.4,25.5,09.2,06.4,0662.2,31.2
2021-06-29T10:52:00Z,00000200,00000000,0000.20,0000.11,-000.10,-000.31,0000.07,-000.08,0000.30,0000.30,0000.02,19.4,25.5,09.1,06.3,0662.1,31.2
2021-06-29T10:53:00Z,00000200,00000000,0000.30,0000.23,0000.11,0000.31,0000.06,-000.08,-000.18,0000.24,0000.22,19.4,25.5,09.1,06.3,0662.1,31.2
2021-06-29T10:54:00Z,00000200,00000000,0000.22,-000.03,-000.25,-000.26,0000.19,-000.23,0000.05,-000.21,-000.09,19.4,25.5,09.2,06.4,0662.1,31.2
2021-06-29T10:55:00Z,00000200,00000000,0000.26,0000.32,0000.01,0000.03,0000.12,-000.01,-000.06,0000.06,0000.25,19.4,25.5,09.1,06.3,0662.0,31.2
2021-06-29T10:56:00Z,00000200,00000000,-000.41,0000.07,-000.11,0000.25,-000.05,-000.01,-000.02,0000.02,-000.19,19.4,25.4,08.9,06.2,0662.1,31.2
2021-06-29T10:57:00Z,00000200,40000000,,,,,,,0000.28,-000.52,-000.01,19.5,25.5,08.5,05.9,0662.1,31.2
2021-06-29T10:58:00Z,00000200,60000000,,,,,,,-000.32,0000.28,-000.30,19.3,25.6,09.0,06.1,0661.1,31.2
2021-06-29T10:59:00Z,00000200,20000000,,,,,,,-000.08,0000.12,0000.03,19.3,25.7,09.0,06.1,0661.1,31.2
